Ponca City Regional Airport
KPNC : now visible

Airfield :











YOU CAN JOIN US ON...

 
LOGIN :

Register | Disclaimer

   EN    FR    IT 

 









Legend :    VFR   Marginal VFR   IFR   Intensive IFR   Very Intensive IFR
Visi :
Ceiling :
>= 8 km
>= 3000ft
5 to 8 km
1000 to 3000 ft
1500m to 5 km
500 to 1000 ft
800 to 1500m
200 to 500 ft
< 800m
< 200 ft
Symbols :   Thunderstorms  Fog  Heavy snow  Heavy precipitations  Wind > 20 kt







- Airport Elevation : 1008 ft


KPNC - Ponca City Regional

CURRENT METAR :
  • 201653Z AUTO 20010G18KT 160V230 10SM CLR 34/22 A2985 RMK AO2 SLP093 T03390222

EXPIRED METARs :
  • 201553Z AUTO 18007G17KT 130V210 10SM CLR 33/22 A2985 RMK AO2 SLP092 T03280217
  • 201453Z AUTO 18007G17KT 140V200 10SM CLR 31/22 A2986 RMK AO2 SLP094 T03110217 50000

TAF KPNC
Valid from the 20 at 12:00 until the 21 at 12:00 UTC


201120Z 2012/2112 17012KT P6SM SKC
FM201500 18013G22KT P6SM SCT250
FM210100 16012KT P6SM SCT250
KZKC FIR / North America



MET'MAP, your aeronautical weather chart ! - Copyright ORBIFLY December 2007 - Disclaimer

ORBIFLY MET'MAP TEAM :

Programming & Development : Alexandra Zaïnal
Concept & Development : Baudouin d'Aumeries
Co-Development & Prog : Marc-Olivier Méhu
Technical & hardware support : Manuel Goepfert

Contact : metmap@orbifly.com




SOURCES & CREDITS :

   NOAA       Earth
Advisory